Regional Weather Roundup
Issued by NWS Northern Indiana

Home | Current Version | Previous Version | Graphics & Text | Print | Product List | Glossary On
Versions: 1 2 3 4 5 6 7 8 9 10 11 12 13 14 15 16 17 18 19 20 21 22 23 24 25 26 27 28 29 30 31 32 33 34 35 36 37 38 39 40 41 42 43 44 45 46 47 48 49 50
000
ASUS43 KIWX 221600
RWRIWX

KIWX WEATHER ROUNDUP
NATIONAL WEATHER SERVICE NORTHERN INDIANA
1200 PM EDT FRI MAY 22 2015

NOTE: "FAIR" INDICATES FEW OR NO CLOUDS BELOW 12,000 FEET WITH NO
SIGNIFICANT WEATHER AND/OR OBSTRUCTIONS TO VISIBILITY.

* THESE STATIONS ARE NOT UNDER NWS QUALITY CONTROL. THEY ALSO MAY NOT
  REPORT WEATHER SUCH AS PRECIPITATION OR FOG.

INZ001>027-221700-
NORTHERN INDIANA

CITY           SKY/WX    TMP DP  RH WIND       PRES   REMARKS
GARY*          SUNNY     57  46  67 N7        30.23R
SOUTH BEND     SUNNY     66  32  28 MISG      30.21R
ELKHART*       SUNNY     64  34  32 E6        30.21R
GOSHEN         SUNNY     64  38  38 E8        30.20R
ANGOLA*        SUNNY     61  50  67 E7        30.19S
FORT WAYNE     SUNNY     65  43  44 E6        30.20R

$$
INZ028>050-221700-
CENTRAL INDIANA

CITY           SKY/WX    TMP DP  RH WIND       PRES   REMARKS
LAFAYETTE      SUNNY     65  49  56 VRB3      30.20R
KOKOMO*        SUNNY     66  46  48 CALM      30.20R
MUNCIE*        SUNNY     65  49  56 NW7       30.20R
INDIANAPOLIS   MOSUNNY   66  48  52 W9        30.19S

$$
MIZ043>046-050>051-056>058-064>065-071>073-077>080-221700-
SOUTHWEST LOWER MICHIGAN

CITY           SKY/WX    TMP DP  RH WIND       PRES   REMARKS
BATTLE CREEK   SUNNY     62  28  27 N8        30.21R
BENTON HARBOR  SUNNY     62  38  40 VRB3      30.21R
COLDWATER*     SUNNY     60  32  34 N5        30.20R
HILLSDALE*     SUNNY     62  29  29 N9        30.19S
HOLLAND        SUNNY     62  29  28 NW7       30.22R
GRAND RAPIDS   SUNNY     61  25  25 CALM      30.21R
KALAMAZOO      SUNNY     62  26  25 VRB3      30.21R
STURGIS*       SUNNY     61  30  31 NE7       30.20R
THREE RIVERS*  FAIR      62  32  32 E6        30.21S

$$
OHZ001>008-015>018-024>025-221700-
NORTHWEST OHIO

CITY           SKY/WX    TMP DP  RH WIND       PRES   REMARKS
DEFIANCE       SUNNY     65  31  28 VRB3      30.19R
FINDLAY        SUNNY     66  30  26 N7        30.18R
TOLEDO EXPRESS SUNNY     62  26  25 N7G17     30.18R
TOLEDO METCALF SUNNY     64  26  23 N9        30.19R
LIMA           SUNNY     63  45  51 NE7       30.19R

$$
AND FOR LAKE MICHIGAN COASTAL AND OPEN LAKE BUOY OBSERVATIONS

STATION/POSITION TEMP    WIND        PRES    VSBY  WAVE
                 AIR SEA DIR/SP/G                  HT/PER
                 (F)     (DEG/KT/KT) (MB)    (MI)  (FT/S)
CALUMET HARBOR    52     350/  7/ 11   N/A
MICHIGAN CITY     52     360/ 14/ 16   N/A
BURNS HARBOR      51      20/  4/  6 1024.0R
SAINT JOSEPH      56     340/  6/ 10 1023.4R
SOUTH LAKE BUOY   40 38  350/  6/  6 1024.8          1
4 MI NW BRIDGMAN  52 53   20/ 12/ 14   N/A           1/ 3
MICHIGAN CITY     49 51   20/ 10/ 14   N/A           1/ 2
MICHIGAN CITY CG                     1024.3      6   1

$$
&&


USA.gov is the U.S. government's official web portal to all federal, state and local government web resources and services.